San Antonio, TX

6:52 PM CDT on October 01, 2016 (GMT -0500)
Stinson Municipal

Weather History for KSSF - October, 2011

Change the Weather History Date:

Sunday, October 2, 2011

  Actual Average Record
Temperature  
Mean Temperature 74 °F -  
Max Temperature 89 °F 83 °F 95 °F (2005)
Min Temperature 60 °F 63 °F 55 °F (2001)
Cooling Degree Days 9    
Growing Degree Days 24 (Base 50)    
Moisture  
Dew Point 45 °F    
Average Humidity 39    
Maximum Humidity 78    
Minimum Humidity 18    
Precipitation  
Precipitation 0.00 in - - ()
Sea Level Pressure  
Sea Level Pressure 30.12 in    
Wind  
Wind Speed 2 mph (SE)    
Max Wind Speed 10 mph    
Max Gust Speed -    
Visibility 10 miles    
Events      
Averages and records for this station are not official NWS values.
T = Trace of Precipitation, MM = Missing Value Source: NWS Daily Summary

Daily Weather History Graph

Daily Weather History Graph

Search for Another Location

Airport or City:

Trip Planner

Search our weather history database for the weather conditions in past years. The results will help you decide how hot, cold, wet, or windy it might be!

Date:

Astronomy

Oct. 02, 2011 Rise Set
Actual Time 7:27 AM CDT 7:18 PM CDT
Civil Twilight 7:03 AM CDT 7:42 PM CDT
Nautical Twilight 6:36 AM CDT 8:09 PM CDT
Astronomical Twilight 6:08 AM CDT 8:37 PM CDT
Moon 1:09 PM CDT (10/2) 11:44 PM CDT (10/2)
Length of Visible Light 12h 38m
Length of Day
11h 51m
Waxing Crescent, 35% of the Moon is Illuminated
Oct 2
Waxing Crescent
Oct 3
First Quarter
Oct 11
Full
Oct 19
Last Quarter
Oct 26
New

Hourly Weather History & Observations

Time (CDT) Temp. Dew Point Humidity Pressure Visibility Wind Dir Wind Speed Gust Speed Precip Events Conditions
12:53 AM 66.9 °F 52.0 °F 59% 30.13 in 10.0 mi Calm Calm - N/A   Clear
1:53 AM 66.0 °F 53.1 °F 63% 30.12 in 10.0 mi Calm Calm - N/A   Clear
2:53 AM 63.0 °F 53.1 °F 70% 30.13 in 10.0 mi Calm Calm - N/A   Clear
3:53 AM 63.0 °F 53.1 °F 70% 30.12 in 10.0 mi Calm Calm - N/A   Clear
5:53 AM 62.1 °F 53.1 °F 72% 30.14 in 10.0 mi Calm Calm - N/A   Clear
7:53 AM 60.1 °F 53.1 °F 78% 30.17 in 10.0 mi Calm Calm - N/A   Clear
10:53 AM 80.1 °F 48.0 °F 32% 30.19 in 10.0 mi South 4.6 mph - N/A   Clear
11:53 AM 82.9 °F 41.0 °F 23% 30.18 in 10.0 mi South 5.8 mph - N/A   Clear
12:53 PM 84.0 °F 41.0 °F 22% 30.17 in 10.0 mi Calm Calm - N/A   Clear
1:53 PM 87.1 °F 41.0 °F 20% 30.13 in 10.0 mi ENE 8.1 mph - N/A   Clear
2:53 PM 87.1 °F 41.0 °F 20% 30.11 in 10.0 mi Variable 3.5 mph - N/A   Clear
3:53 PM 88.0 °F 41.0 °F 19% 30.09 in 10.0 mi SE 10.4 mph - N/A   Clear
4:53 PM 87.1 °F 39.0 °F 18% 30.08 in 10.0 mi Variable 5.8 mph - N/A   Clear
5:53 PM 87.1 °F 39.9 °F 19% 30.08 in 10.0 mi SE 8.1 mph - N/A   Clear
6:53 PM 84.0 °F 39.0 °F 20% 30.08 in 10.0 mi SE 5.8 mph - N/A   Clear
7:53 PM 78.1 °F 41.0 °F 27% 30.10 in 10.0 mi SE 3.5 mph - N/A   Clear
8:53 PM 75.0 °F 42.1 °F 31% 30.11 in 10.0 mi SE 4.6 mph - N/A   Clear
9:53 PM 71.1 °F 42.1 °F 35% 30.12 in 10.0 mi ESE 3.5 mph - N/A   Clear
10:53 PM 70.0 °F 43.0 °F 38% 30.12 in 10.0 mi SE 4.6 mph - N/A   Clear
11:53 PM 69.1 °F 46.0 °F 44% 30.12 in 10.0 mi Calm Calm - N/A   Clear